GW4458 Weather Reports


time (UTC)temp
F
wind
direction
speed
knots
gust
knots
rain 1hr
in
rain 24hr
in
rain mn
in
humidity
%
barometer
mb
20260504150528 73 257 2.6 6.1 0.00 0.00 0.00 42 995.8
20260504140527 67 147 1.7 2.6 0.00 0.00 0.00 51 996.2
20260504130532 59 140 0.0 2.6 0.00 0.00 0.00 69 996.2
20260504110524 42 0.0 0.0 0.00 0.00 0.00 95 995.8
20260504100521 43 0.0 0.0 0.00 0.00 0.00 95 995.6
20260504081605 44 0.0 0.0 0.00 0.00 0.00 93 995.4
20260504080524 44 0.0 0.0 0.00 0.00 0.00 93 995.5
20260504050527 47 0.0 0.0 0.00 0.00 0.00 88 996.1
20260504045526 48 0.0 0.9 0.00 0.00 0.00 88 996.2
20260504044525 48 0.0 0.0 0.00 0.00 0.00 87 996.3
20260504043525 48 0.0 0.0 0.00 0.00 0.00 86 996.4
20260504042521 49 0.0 0.0 0.00 0.00 0.00 85 996.3
20260504041527 49 0.0 0.0 0.00 0.00 0.00 85 996.3
20260504040525 49 0.0 0.0 0.00 0.00 0.00 84 996.4
20260504035525 50 0.0 0.0 0.00 0.00 0.00 82 996.3
20260504034524 50 0.0 0.0 0.00 0.00 0.00 82 996.3
20260504033524 50 0.0 0.0 0.00 0.00 0.00 82 996.4
20260504032527 51 0.0 0.0 0.00 0.00 0.00 81 996.3
20260504031525 51 0.0 0.0 0.00 0.00 0.00 81 996.3
20260504030525 51 0.0 0.0 0.00 0.00 0.00 79 996.4
20260504025525 52 0.0 0.0 0.00 0.00 0.00 78 996.4
20260504024525 53 0.0 0.0 0.00 0.00 0.00 77 996.2
20260504023525 53 0.0 0.0 0.00 0.00 0.00 73 996.2
20260504022526 54 0.0 0.0 0.00 0.00 0.00 72 996.1
20260504021525 54 0.0 0.0 0.00 0.00 0.00 70 996.0
20260504020524 55 0.0 0.0 0.00 0.00 0.00 70 995.9
20260504015526 56 0.0 0.0 0.00 0.00 0.00 68 995.8
20260504014524 56 0.0 0.0 0.00 0.00 0.00 66 995.6
20260504013530 57 0.0 0.0 0.00 0.00 0.00 64 995.6
20260504012541 58 0.0 0.0 0.00 0.00 0.00 62 995.4
20260504011544 59 0.0 0.0 0.00 0.00 0.00 58 995.4
20260504010525 60 0.0 0.0 0.00 0.00 0.00 56 995.4
20260504005605 61 0.0 0.0 0.00 0.00 0.00 53 995.3
20260504004550 63 0.0 0.0 0.00 0.00 0.00 50 995.1
20260504003525 64 0.0 0.0 0.00 0.00 0.00 48 995.0
20260504002526 65 0.0 0.0 0.00 0.00 0.00 45 994.9
20260504001542 66 214 0.0 1.7 0.00 0.00 0.00 44 994.9
20260504000520 67 222 0.9 3.5 0.00 0.00 0.00 42 994.9
20260503235524 68 254 1.7 3.5 0.00 0.00 0.00 40 994.9
20260503234526 70 248 1.7 4.3 0.00 0.00 0.00 39 994.8
20260503233524 70 223 1.7 4.3 0.00 0.00 0.00 38 994.8
20260503232525 70 255 3.5 6.1 0.00 0.00 0.00 37 994.8
20260503231520 71 241 1.7 4.3 0.00 0.00 0.00 35 995.0
20260503230525 71 264 3.5 6.1 0.00 0.00 0.00 34 995.1
20260503225527 72 268 1.7 6.1 0.00 0.00 0.00 33 995.0
20260503224525 71 293 2.6 5.2 0.00 0.00 0.00 33 995.0
20260503223525 72 276 2.6 4.3 0.00 0.00 0.00 32 995.1
20260503222521 72 272 3.5 5.2 0.00 0.00 0.00 33 995.2
20260503221519 71 301 4.3 7.0 0.00 0.00 0.00 32 995.2
20260503220525 72 307 4.3 7.8 0.00 0.00 0.00 31 995.2
20260503215545 72 278 4.3 7.0 0.00 0.00 0.00 33 995.2
20260503214545 72 219 1.7 5.2 0.00 0.00 0.00 34 995.2
20260503213524 72 315 3.5 7.0 0.00 0.00 0.00 33 995.2
20260503212520 72 124 2.6 4.3 0.00 0.00 0.00 34 995.3
20260503211519 72 295 3.5 8.7 0.00 0.00 0.00 35 995.5
20260503210529 71 263 4.3 7.8 0.00 0.00 0.00 34 995.5
20260503205525 72 285 3.5 6.1 0.00 0.00 0.00 33 995.6
20260503204525 72 286 4.3 6.1 0.00 0.00 0.00 33 995.8
20260503203525 72 256 5.2 9.6 0.00 0.00 0.00 32 995.9
20260503202524 72 252 2.6 4.3 0.00 0.00 0.00 31 996.1
20260503201527 73 257 2.6 6.1 0.00 0.00 0.00 31 996.3
20260503200545 71 251 3.5 5.2 0.00 0.00 0.00 32 996.5
20260503195530 71 275 4.3 7.0 0.00 0.00 0.00 33 996.7
20260503194525 71 309 4.3 7.8 0.00 0.00 0.00 32 996.9
20260503193524 71 282 4.3 6.1 0.00 0.00 0.00 34 997.0
20260503192521 72 257 3.5 6.1 0.00 0.00 0.00 34 997.3
20260503191526 71 61 2.6 5.2 0.00 0.00 0.00 35 997.4
20260503190524 71 340 4.3 7.8 0.00 0.00 0.00 34 997.4
20260503185524 71 231 2.6 7.8 0.00 0.00 0.00 35 997.5
20260503184546 71 53 2.6 5.2 0.00 0.00 0.00 35 997.7
20260503183545 69 264 4.3 7.0 0.00 0.00 0.00 38 997.8
20260503182527 70 220 3.5 6.1 0.00 0.00 0.00 38 997.9
20260503181520 71 267 3.5 7.0 0.00 0.00 0.00 38 997.9
20260503180525 70 283 1.7 3.5 0.00 0.00 0.00 39 998.0
20260503175525 69 189 3.5 6.1 0.00 0.00 0.00 38 998.1
20260503174520 69 261 3.5 6.1 0.00 0.00 0.00 38 998.2
20260503173551 68 193 3.5 7.8 0.00 0.00 0.00 40 998.3
20260503172525 69 247 1.7 2.6 0.00 0.00 0.00 40 998.4
20260503171526 68 261 3.5 6.1 0.00 0.00 0.00 39 998.5
20260503170524 68 239 1.7 3.5 0.00 0.00 0.00 40 998.7